• In Romania
  • List of Countries
  • For 7 days
  • Water Temperature
  • Satellite Maps
  • Weather Map
  • Weather Widgets
  • user-avatar
    Login

    Hourly Weather Pozhega

    Today, 18 October, Wednesday

    Time Temperature Precipitation Wind Pressure Humidity
    00:00 +14°C° 0 mm 0 mps 748 mmHg 79%
    01:00 +14°C° 0 mm 0 mps 748 mmHg 79%
    02:00 +14°C° 0 mm 0 mps 747 mmHg 80%
    03:00 +13°C° 0 mm 0 mps 747 mmHg 81%
    04:00 +13°C° 0 mm 0 mps 747 mmHg 82%
    05:00 +14°C° 0 mm 1 mps 747 mmHg 80%
    06:00 +14°C° 0 mm 1 mps 746 mmHg 79%
    07:00 +14°C° 0 mm 1 mps 746 mmHg 78%
    08:00 +18°C° 0 mm 1 mps 746 mmHg 69%
    09:00 +20°C° 0 mm 1 mps 746 mmHg 59%
    10:00 +23°C° 0 mm 1 mps 746 mmHg 50%
    11:00 +24°C° 0 mm 1 mps 746 mmHg 45%
    12:00 +25°C° 0 mm 1 mps 746 mmHg 40%
    13:00 +26°C° 0 mm 1 mps 745 mmHg 35%
    14:00 +25°C° 0 mm 1 mps 745 mmHg 38%
    15:00 +24°C° 0 mm 1 mps 745 mmHg 42%
    16:00 +23°C° 0 mm 1 mps 744 mmHg 45%
    17:00 +22°C° 0 mm 1 mps 744 mmHg 48%
    18:00 +20°C° 0 mm 1 mps 744 mmHg 51%
    19:00 +18°C° 0 mm 1 mps 744 mmHg 54%
    20:00 +18°C° 0 mm 1 mps 744 mmHg 55%
    21:00 +16°C° 0 mm 1 mps 744 mmHg 57%
    22:00 +16°C° 0 mm 1 mps 745 mmHg 58%
    23:00 +15°C° 0 mm 1 mps 745 mmHg 60%

    Tomorrow, 19 October, Thursday

    Time Temperature Precipitation Wind Pressure Humidity
    00:00 +15°C° 0 mm 1 mps 745 mmHg 61%
    01:00 +14°C° 0 mm 1 mps 745 mmHg 63%
    02:00 +14°C° 0 mm 1 mps 744 mmHg 64%
    03:00 +13°C° 0 mm 1 mps 744 mmHg 65%
    04:00 +13°C° 0 mm 1 mps 744 mmHg 66%
    05:00 +13°C° 0 mm 1 mps 744 mmHg 65%
    06:00 +13°C° 0 mm 1 mps 744 mmHg 65%
    07:00 +13°C° 0 mm 1 mps 744 mmHg 65%
    08:00 +15°C° 0 mm 1 mps 744 mmHg 57%
    09:00 +19°C° 0 mm 1 mps 745 mmHg 49%
    10:00 +22°C° 0 mm 1 mps 745 mmHg 42%
    11:00 +23°C° 0 mm 2 mps 745 mmHg 39%
    12:00 +24°C° 0 mm 2 mps 744 mmHg 36%
    13:00 +25°C° 0 mm 2 mps 744 mmHg 33%
    14:00 +24°C° 0 mm 2 mps 744 mmHg 37%
    15:00 +23°C° 0 mm 1 mps 744 mmHg 41%
    16:00 +22°C° 0 mm 1 mps 743 mmHg 45%
    17:00 +21°C° 0 mm 1 mps 744 mmHg 49%
    18:00 +19°C° 0 mm 1 mps 744 mmHg 53%
    19:00 +16°C° 0 mm 1 mps 744 mmHg 56%
    20:00 +16°C° 0 mm 1 mps 744 mmHg 58%
    21:00 +15°C° 0 mm 1 mps 744 mmHg 59%
    22:00 +15°C° 0 mm 1 mps 744 mmHg 60%
    23:00 +14°C° 0 mm 1 mps 744 mmHg 62%

    Day after tomorrow, 20 October, Friday

    Time Temperature Precipitation Wind Pressure Humidity
    00:00 +14°C° 0 mm 1 mps 744 mmHg 64%
    01:00 +14°C° 0 mm 1 mps 744 mmHg 65%
    02:00 +13°C° 0 mm 1 mps 744 mmHg 68%
    03:00 +13°C° 0 mm 1 mps 744 mmHg 70%
    04:00 +12°C° 0 mm 1 mps 744 mmHg 72%
    05:00 +12°C° 0 mm 1 mps 744 mmHg 73%
    06:00 +12°C° 0 mm 1 mps 745 mmHg 74%
    07:00 +12°C° 0 mm 1 mps 745 mmHg 74%
    08:00 +15°C° 0 mm 1 mps 745 mmHg 66%
    09:00 +18°C° 0 mm 1 mps 745 mmHg 58%
    10:00 +21°C° 0 mm 1 mps 745 mmHg 50%
    11:00 +22°C° 0 mm 1 mps 745 mmHg 47%
    12:00 +23°C° 0 mm 1 mps 745 mmHg 43%
    13:00 +24°C° 0 mm 1 mps 745 mmHg 40%
    14:00 +23°C° 0 mm 1 mps 745 mmHg 43%
    15:00 +23°C° 0 mm 1 mps 745 mmHg 46%
    16:00 +20°C° 0 mm 0 mps 744 mmHg 50%
    17:00 +18°C° 0 mm 0 mps 745 mmHg 53%
    18:00 +17°C° 0 mm 0 mps 745 mmHg 57%
    19:00 +16°C° 0 mm 1 mps 745 mmHg 61%
    20:00 +16°C° 0 mm 1 mps 745 mmHg 62%
    21:00 +15°C° 0 mm 1 mps 746 mmHg 63%
    22:00 +15°C° 0 mm 1 mps 746 mmHg 65%
    23:00 +14°C° 0 mm 1 mps 746 mmHg 67%

    21 October, Saturday

    Time Temperature Precipitation Wind Pressure Humidity
    00:00 +14°C° 0 mm 1 mps 746 mmHg 69%
    01:00 +13°C° 0 mm 1 mps 746 mmHg 71%
    02:00 +13°C° 0 mm 1 mps 746 mmHg 73%
    03:00 +13°C° 0 mm 1 mps 746 mmHg 75%
    04:00 +12°C° 0 mm 1 mps 746 mmHg 77%
    05:00 +12°C° 0 mm 1 mps 746 mmHg 79%
    06:00 +12°C° 0 mm 1 mps 746 mmHg 80%
    07:00 +12°C° 0 mm 1 mps 746 mmHg 81%
    08:00 +15°C° 0 mm 1 mps 747 mmHg 73%
    09:00 +18°C° 0 mm 1 mps 747 mmHg 65%
    10:00 +20°C° 0 mm 1 mps 747 mmHg 56%
    11:00 +21°C° 0 mm 1 mps 747 mmHg 53%
    12:00 +21°C° 0 mm 2 mps 746 mmHg 50%
    13:00 +23°C° 0 mm 2 mps 746 mmHg 47%
    14:00 +22°C° 0 mm 1 mps 746 mmHg 51%
    15:00 +22°C° 0 mm 1 mps 745 mmHg 54%
    16:00 +21°C° 0 mm 1 mps 745 mmHg 58%
    17:00 +19°C° 0 mm 1 mps 745 mmHg 63%
    18:00 +18°C° 0 mm 1 mps 746 mmHg 68%
    19:00 +14°C° 0 mm 0 mps 746 mmHg 73%
    20:00 +14°C° 0 mm 0 mps 746 mmHg 75%
    21:00 +14°C° 0 mm 0 mps 746 mmHg 77%
    22:00 +13°C° 0 mm 0 mps 746 mmHg 79%
    23:00 +13°C° 0 mm 0 mps 746 mmHg 80%

    22 October, Sunday

    Time Temperature Precipitation Wind Pressure Humidity
    00:00 +14°C° 0 mm 1 mps 746 mmHg 81%
    01:00 +13°C° 0 mm 1 mps 746 mmHg 81%
    02:00 +12°C° 0 mm 0 mps 745 mmHg 82%
    03:00 +12°C° 0 mm 0 mps 745 mmHg 82%
    04:00 +11°C° 0 mm 0 mps 745 mmHg 82%
    05:00 +12°C° 0 mm 0 mps 745 mmHg 82%
    06:00 +12°C° 0 mm 0 mps 745 mmHg 81%
    07:00 +12°C° 0 mm 0 mps 745 mmHg 80%
    08:00 +15°C° 0 mm 1 mps 745 mmHg 71%
    09:00 +18°C° 0 mm 1 mps 744 mmHg 63%
    10:00 +20°C° 0 mm 1 mps 744 mmHg 54%
    11:00 +21°C° 0 mm 1 mps 744 mmHg 51%
    12:00 +22°C° 0 mm 1 mps 743 mmHg 48%
    13:00 +23°C° 0 mm 1 mps 743 mmHg 45%
    14:00 +22°C° 0 mm 1 mps 742 mmHg 48%
    15:00 +22°C° 0 mm 1 mps 742 mmHg 51%
    16:00 +21°C° 0 mm 1 mps 741 mmHg 55%
    17:00 +20°C° 0.2 mm 1 mps 741 mmHg 59%
    18:00 +19°C° 0.2 mm 1 mps 741 mmHg 63%
    19:00 +18°C° 0.2 mm 1 mps 741 mmHg 66%
    20:00 +16°C° 1.3 mm 2 mps 741 mmHg 71%
    21:00 +14°C° 1.3 mm 4 mps 742 mmHg 76%
    22:00 +13°C° 1.3 mm 5 mps 742 mmHg 81%
    23:00 +13°C° 1.2 mm 6 mps 742 mmHg 83%

    23 October, Monday

    Time Temperature Precipitation Wind Pressure Humidity
    00:00 +11°C° 1.2 mm 6 mps 742 mmHg 84%
    01:00 +10°C° 1.2 mm 7 mps 742 mmHg 85%
    02:00 +9°C° 1.4 mm 7 mps 742 mmHg 85%
    03:00 +9°C° 1.4 mm 6 mps 742 mmHg 85%
    04:00 +9°C° 1.4 mm 6 mps 742 mmHg 86%
    05:00 +9°C° 1.7 mm 6 mps 743 mmHg 86%
    06:00 +8°C° 1.7 mm 6 mps 743 mmHg 87%
    07:00 +8°C° 1.7 mm 6 mps 744 mmHg 88%
    08:00 +8°C° 1.2 mm 5 mps 744 mmHg 88%
    09:00 +8°C° 1.2 mm 5 mps 745 mmHg 87%
    10:00 +9°C° 1.2 mm 5 mps 745 mmHg 86%
    11:00 +9°C° 0.4 mm 5 mps 745 mmHg 86%
    12:00 +9°C° 0.4 mm 5 mps 746 mmHg 85%
    13:00 +9°C° 0.4 mm 5 mps 746 mmHg 84%
    14:00 +9°C° 0.2 mm 5 mps 746 mmHg 84%
    15:00 +10°C° 0.2 mm 4 mps 747 mmHg 84%
    16:00 +10°C° 0.2 mm 3 mps 747 mmHg 83%
    17:00 +10°C° 0.1 mm 3 mps 747 mmHg 83%
    18:00 +10°C° 0.1 mm 3 mps 748 mmHg 84%
    19:00 +10°C° 0.1 mm 3 mps 749 mmHg 84%
    20:00 +9°C° 0 mm 3 mps 749 mmHg 83%
    21:00 +9°C° 0 mm 3 mps 749 mmHg 83%
    22:00 +9°C° 0 mm 3 mps 750 mmHg 83%
    23:00 +8°C° 0 mm 2 mps 750 mmHg 83%
    Show more